Omak, WA

5:56 PM PDT on March 29, 2017 (GMT -0700)
Omak

Weather History for KOMK - September, 2013

Change the Weather History Date:

Thursday, September 12, 2013

  Actual Average Record
Temperature  
Mean Temperature 79 °F 64 °F  
Max Temperature 94 °F 79 °F 94 °F (2011)
Min Temperature 63 °F 49 °F 28 °F (1949)
Degree Days  
Heating Degree Days 0 3  
Month to date heating degree days 6 28  
Since 1 July heating degree days 6 59  
Cooling Degree Days 14 2  
Month to date cooling degree days 87 40  
Year to date cooling degree days 773 646  
Growing Degree Days 28 (Base 50)    
Moisture  
Dew Point 52 °F    
Average Humidity 46    
Maximum Humidity 67    
Minimum Humidity 24    
Precipitation  
Precipitation 0.00 in 0.02 in 0.24 in (1966)
Month to date precipitation 0.64 0.21  
Year to date precipitation 8.06 9.49  
Sea Level Pressure  
Sea Level Pressure 29.93 in    
Wind  
Wind Speed 9 mph (NNW)    
Max Wind Speed 17 mph    
Max Gust Speed 22 mph    
Visibility 10 miles    
Events      
T = Trace of Precipitation, MM = Missing Value Source: NWS Daily Summary

Daily Weather History Graph

Daily Weather History Graph

Search for Another Location

Airport or City:

Trip Planner

Search our weather history database for the weather conditions in past years. The results will help you decide how hot, cold, wet, or windy it might be!

Date:

Astronomy

Sep. 12, 2013 Rise Set
Actual Time 6:31 AM PDT 7:16 PM PDT
Civil Twilight 5:59 AM PDT 7:47 PM PDT
Nautical Twilight 5:21 AM PDT 8:25 PM PDT
Astronomical Twilight 4:41 AM PDT 9:05 PM PDT
Moon 2:35 PM PDT (9/12) 11:45 PM PDT (9/12)
Length of Visible Light 13h 48m
Length of Day
12h 45m
Waxing Crescent, 51% of the Moon is Illuminated
Sep 12
Waxing Crescent
Sep 19
Full
Sep 26
Last Quarter
Oct 4
New
Oct 11
First Quarter

Hourly Weather History & Observations

Time (PDT) Temp. Heat Index Dew Point Humidity Pressure Visibility Wind Dir Wind Speed Gust Speed Precip Events Conditions
12:53 AM 70.0 °F - 51.1 °F 51% 30.00 in 10.0 mi North 11.5 mph - N/A   Clear
1:53 AM 68.0 °F - 51.1 °F 55% 30.00 in 10.0 mi North 11.5 mph - N/A   Clear
2:53 AM 66.9 °F - 51.1 °F 57% 30.00 in 10.0 mi North 10.4 mph - N/A   Clear
3:53 AM 66.0 °F - 51.1 °F 59% 30.00 in 10.0 mi North 13.8 mph - N/A   Clear
4:53 AM 64.9 °F - 51.1 °F 61% 30.01 in 10.0 mi North 12.7 mph - N/A   Clear
5:53 AM 64.0 °F - 51.1 °F 63% 30.01 in 10.0 mi North 12.7 mph - N/A   Clear
6:53 AM 63.0 °F - 51.1 °F 65% 30.03 in 10.0 mi North 13.8 mph - N/A   Clear
7:53 AM 66.0 °F - 52.0 °F 60% 30.03 in 10.0 mi North 15.0 mph - N/A   Clear
8:53 AM 70.0 °F - 52.0 °F 53% 30.02 in 10.0 mi North 13.8 mph - N/A   Clear
9:53 AM 75.9 °F - 53.1 °F 45% 30.00 in 10.0 mi North 15.0 mph - N/A   Clear
10:53 AM 80.1 °F 79.9 °F 53.1 °F 39% 29.98 in 10.0 mi North 13.8 mph - N/A   Clear
11:53 AM 84.0 °F 82.5 °F 53.1 °F 34% 29.96 in 10.0 mi North 11.5 mph 17.3 mph N/A   Clear
12:53 PM 88.0 °F 85.9 °F 54.0 °F 31% 29.94 in 10.0 mi North 9.2 mph - N/A   Clear
1:53 PM 91.9 °F 89.5 °F 53.1 °F 27% 29.91 in 10.0 mi North 6.9 mph - N/A   Clear
2:53 PM 91.9 °F - 51.1 °F 25% 29.88 in 10.0 mi Calm Calm - N/A   Clear
3:53 PM 93.0 °F 90.8 °F 54.0 °F 27% 29.86 in 10.0 mi SSW 6.9 mph - N/A   Clear
4:53 PM 93.0 °F - 52.0 °F 25% 29.83 in 10.0 mi SSW 6.9 mph - N/A   Clear
5:53 PM 91.9 °F - 51.1 °F 25% 29.83 in 10.0 mi South 4.6 mph - N/A   Clear
6:53 PM 84.9 °F 83.6 °F 55.0 °F 36% 29.82 in 10.0 mi Calm Calm - N/A   Clear
7:53 PM 73.0 °F - 54.0 °F 51% 29.83 in 10.0 mi West 4.6 mph - N/A   Clear
8:53 PM 72.0 °F - 53.1 °F 51% 29.84 in 10.0 mi WNW 6.9 mph - N/A   Clear
9:53 PM 71.1 °F - 52.0 °F 51% 29.84 in 10.0 mi North 3.5 mph - N/A   Clear
10:53 PM 66.9 °F - 52.0 °F 59% 29.84 in 10.0 mi NNW 4.6 mph - N/A   Clear
11:53 PM 66.9 °F - 52.0 °F 59% 29.84 in 10.0 mi NNW 5.8 mph - N/A   Clear